Location: Bremen
(53.0796°N, 8.8241°E)
Time: 06:44:25
(UTC+01:00)

Envisat - Visible Passes

Search period start: 24 November 2017 00:00
Search period end: 04 December 2017 00:00
Orbit: 764 x 766 km, 98.2° (Epoch: 23 November)

Date Brightness Start Highest point End Pass type
(mag) Time Alt. Az. Time Alt. Az. Time Alt. Az.
24 Nov 4.6 18:24:47 18° NNE 18:24:47 18° NNE 18:26:47 10° N visible
24 Nov 5.0 20:04:59 21° NNW 20:04:59 21° NNW 20:06:37 10° NNW visible
25 Nov 4.9 17:47:42 12° NE 17:47:42 12° NE 17:48:57 10° NNE visible
25 Nov 4.6 19:27:55 23° N 19:27:55 23° N 19:29:49 10° N visible
25 Nov 5.9 21:08:08 12° NW 21:08:08 12° NW 21:08:28 10° NW visible
26 Nov 6.0 07:24:25 10° ENE 07:26:23 12° E 07:28:22 10° ESE visible
26 Nov 4.6 18:50:50 20° NNE 18:50:50 20° NNE 18:52:46 10° N visible
26 Nov 5.4 20:31:03 16° NNW 20:31:03 16° NNW 20:32:09 10° NNW visible
27 Nov 4.7 18:13:45 16° NNE 18:13:45 16° NNE 18:15:25 10° N visible
27 Nov 4.9 19:53:58 20° NNW 19:53:58 20° NNW 19:55:30 10° NNW visible
28 Nov 5.0 17:36:40 10° NE 17:36:40 10° NE 17:37:05 10° NNE visible
28 Nov 4.7 19:16:53 21° N 19:16:53 21° N 19:18:37 10° N visible
28 Nov 5.8 20:57:05 12° NNW 20:57:05 12° NNW 20:57:31 10° NNW visible
29 Nov 4.7 18:39:47 18° NNE 18:39:47 18° NNE 18:41:30 10° N visible
29 Nov 5.3 20:20:00 16° NNW 20:20:00 16° NNW 20:21:05 10° NNW visible
30 Nov 4.8 18:02:42 14° NNE 18:02:42 14° NNE 18:04:01 10° NNE visible
30 Nov 4.9 19:42:54 19° N 19:42:54 19° N 19:44:22 10° NNW visible
01 Dec 4.7 19:05:48 19° N 19:05:48 19° N 19:07:25 10° N visible
01 Dec 5.7 20:46:01 13° NNW 20:46:01 13° NNW 20:46:31 10° NNW visible
02 Dec 4.8 18:28:43 16° NNE 18:28:43 16° NNE 18:30:13 10° N visible
02 Dec 5.3 20:08:55 16° NNW 20:08:55 16° NNW 20:09:59 10° NNW visible
03 Dec 4.9 17:51:37 12° NNE 17:51:37 12° NNE 17:52:30 10° NNE visible
03 Dec 4.9 19:31:48 19° N 19:31:48 19° N 19:33:12 10° N visible
